sat.trackr.live / text

‹ back to catalog

ONEWEB-0324

NORAD 49193 · 2021-083H

PAYLOAD ACTIVE UNKNOWN

§ Identity

Operator
Country
UK
Launch date
2021-09-14
Launch site
TYMSC
Launch vehicle
Mass (kg)
RCS (m²)

Purposes: comms

External: N2YO · Heavens-Above · Gunter

§ Orbital elements

Epoch: 2026-05-25T01:39:00.356832Z

Period
109.20 min
Inclination
87.9170°
Eccentricity
0.0001754
Mean motion
13.18685667 rev/d
Perigee alt
1,188.4 km
Apogee alt
1,191.1 km
Semi-major
7,567.9 km
B*
-2.5801e-5
RAAN
340.0499°
Arg perigee
92.9864°
Mean anomaly
267.1469°
Rev number
22,695

§ Raw data

ONEWEB-03241 49193U 21083H   26145.06875413  .00000003  00000+0 -25801-4 0  99952 49193  87.9170 340.0499 0001754  92.9864 267.1469 13.18685667226954

JSON: /api/v1/satellites/49193 · /tle

For live sub-satellite position, see the globe view (requires WebGL).

§ Visibility from observer

Set your observer location to see the next 7 days of passes ≥ 10°. The values pass through the URL so the page stays shareable.

No JS? Fill the form by hand. The geolocation button needs JavaScript.